This is the latest recevied weather packets stored in our database for station/object W4TTU-1. If no packets are shown the sender has not sent any weather packets the latest 10 day(s).
| Time | Temp. | Humidity | Pressure | Rain* | Wind** | Luminosity | Snow |
|---|---|---|---|---|---|---|---|
| 1777645788 | 3.89° C | 45% | 851.4 hPa | 0 mm | - | - | - |
| 1777644888 | 2.78° C | 45% | 851.5 hPa | 0 mm | - | - | - |
| 1777643987 | 1.67° C | 43% | 851.4 hPa | 0 mm | - | - | - |
| 1777643087 | 0.56° C | 41% | 851.7 hPa | 0 mm | - | - | - |
| 1777642186 | 0° C | 38% | 851.8 hPa | 0 mm | - | - | - |
| 1777641286 | 0° C | 37% | 851.7 hPa | 0 mm | - | - | - |
| 1777640385 | 0° C | 37% | 851.7 hPa | 0 mm | - | - | - |
| 1777638584 | -0.56° C | 36% | 851.5 hPa | 0 mm | - | - | - |
| 1777637683 | -0.56° C | 36% | 851.5 hPa | 0 mm | - | - | - |
| 1777636783 | -0.56° C | 36% | 851.5 hPa | 0 mm | - | - | - |
| 1777635885 | -0.56° C | 36% | 851.6 hPa | 0 mm | - | - | - |
| 1777634982 | -0.56° C | 35% | 851.6 hPa | 0 mm | - | - | - |
| 1777634081 | -0.56° C | 35% | 851.7 hPa | 0 mm | - | - | - |
| 1777633181 | 0° C | 35% | 851.7 hPa | 0 mm | - | - | - |
| 1777630479 | 0.56° C | 34% | 851.5 hPa | 0 mm | - | - | - |
| 1777629579 | 1.11° C | 34% | 851.4 hPa | 0 mm | - | - | - |
| 1777628678 | 1.67° C | 34% | 851.2 hPa | 0 mm | - | - | - |
| 1777627778 | 1.67° C | 34% | 851.2 hPa | 0 mm | - | - | - |
| 1777626877 | 2.22° C | 34% | 851.2 hPa | 0 mm | - | - | - |
| 1777625977 | 2.78° C | 35% | 851.2 hPa | 0 mm | - | - | - |
| 1777625076 | 2.78° C | 35% | 851.2 hPa | 0 mm | - | - | - |
| 1777624176 | 3.33° C | 35% | 851.2 hPa | 0 mm | - | - | - |
| 1777623275 | 3.33° C | 35% | 851.2 hPa | 0 mm | - | - | - |
| 1777622374 | 3.33° C | 35% | 851.3 hPa | 0 mm | - | - | - |
| 1777621476 | 3.33° C | 35% | 851.5 hPa | 0 mm | - | - | - |
* Rain since midnight (hover to see other rain measurements)
** Current wind speed in m/s (hover to see current wind gust speed)